Regional Weather Roundup
Issued by NWS Bismarck, ND

Home | Current Version | Previous Version | Text Only | Print | Product List | Glossary On
Versions: 1 2 3 4 5 6 7 8 9 10 11 12 13 14 15 16 17 18 19 20 21 22 23 24 25 26 27 28 29 30 31 32 33 34 35 36 37 38 39 40 41 42 43 44 45 46 47 48 49 50
000
ASUS43 KBIS 210920
RWRBIS

NWR BROADCAST TEXT
NATIONAL WEATHER SERVICE BISMARCK ND
300 AM CST SUN DEC 21 2014

NOTE: "FAIR" INDICATES FEW OR NO CLOUDS BELOW 12,000 FEET WITH NO
SIGNIFICANT WEATHER AND/OR OBSTRUCTIONS TO VISIBILITY.


CITY           SKY/WX    TMP DP  RH WIND       PRES   REMARKS
WILLISTON      CLEAR     16  14  92 SW3       29.63F
MINOT          CLEAR     26  21  81 SW12      29.65F WCI  16
MINOT AFB      CLEAR     18  18  99 SW3       29.65F
BISMARCK       CLEAR     13  11  92 NE5       29.74F WCI   5
DICKINSON      MOCLDY    25  20  81 S10       29.64F WCI  15
GARRISON         N/A     22  20  92 CALM      29.67F
HETTINGER ARPT PTCLDY    27  21  78 CALM      29.69F
JAMESTOWN      FOG       25  22  88 S12       29.74F VSB 3/4 WCI  14
BEACH          FAIR      25  25 100 S7        29.63F WCI  17
CARRINGTON     FAIR      18  18 100 MISG      29.71F
CROSBY         FAIR      19  19 100 S9        29.61F WCI   9
HARVEY         FAIR      23  23 100 SW8       29.70S WCI  14
HAZEN          FAIR      19  16  86 SE5       29.69F WCI  13
LINTON         FAIR      19  19 100 SE6       29.74S WCI  11
MANDAN         FAIR      27  23  86 S5        29.72F
OAKES            N/A     28  28 100 S14       29.80F FOG     WCI  17
RUGBY          FAIR      25  25 100 S7        29.67F WCI  17
STANLEY        FAIR      19  19 100 CALM      29.63F
TIOGA          FAIR      16  16 100 E5        29.65F WCI   9
WATFORD CITY   FAIR      19  18  93 CALM      29.62F
$$

CITY           SKY/WX    TMP DP  RH WIND       PRES   REMARKS
GRAND FORKS    CLOUDY    30  28  92 S12       29.79F
GRAND FORKS AF CLOUDY    28  28 100 S13       29.78F WCI  18
DEVILS LAKE    MOCLDY    25  18  74 S7        29.68F WCI  17
FARGO          CLOUDY    32  29  88 S13       29.83F FOG
CANDO          CLOUDY    25  25 100 S5        29.70S WCI  19
CAVALIER       CLOUDY    28  28 100 S12       29.74F FOG     WCI  18
GWINNER        CLOUDY    32  32 100 MISG      29.81F
LANGDON        CLOUDY    27  25  93 N5        29.68F FOG
ROLLA          CLOUDY    25  25 100 MISG      29.67S
WALHALLA         N/A     28  28 100 S9        29.73F WCI  20
$$

CITY           SKY/WX    TMP DP  RH WIND       PRES   REMARKS
ABERDEEN       CLOUDY    30  28  92 S13       29.82F FOG     WCI  20
MOBRIDGE       MOCLDY    26  23  88 SE7       29.72F WCI  18
BUFFALO          N/A     29  22  75 S7        29.61F
RAPID CITY     CLEAR     28  22  78 CALM      29.69F
GLASGOW        CLEAR     23  18  81 E13       29.53F WCI  11
SIDNEY         CLEAR     25  21  86 S9        29.63F WCI  15
WOLF POINT     PTCLDY    18  14  84 NE6       29.59F WCI  10
GLENDIVE       CLEAR     23  19  86 S10       29.61F WCI  12
MILES CITY     CLEAR     27  23  85 SE10      29.60F WCI  17
BAKER          CLEAR     22  20  92 E5        29.64F WCI  16
$$

CITY           SKY/WX    TMP DP  RH WIND       PRES   REMARKS
BILLINGS       CLOUDY    33  22  63 SW10      29.55F
GREAT FALLS    CLOUDY    43  28  55 S16G25    29.42F
REGINA         PTCLDY    14  12  92 E9        29.57F WCI   2
ESTEVAN        CLEAR     18  16  93 S5        29.61F WCI  11
$$



USA.gov is the U.S. government's official web portal to all federal, state and local government web resources and services.